TimeEDT,TemperatureF,Dew PointF,Humidity,Sea Level PressureIn,VisibilityMPH,Wind Direction,Wind SpeedMPH,Gust SpeedMPH,PrecipitationIn,Events,Conditions,WindDirDegrees,DateUTC
12:53 AM,70.0,66.0,87,30.03,10.0,South,3.5,-,N/A,,Clear,170,2014-04-05 04:53:00
1:53 AM,70.0,66.0,87,30.03,10.0,South,4.6,-,N/A,,Clear,180,2014-04-05 05:53:00
2:53 AM,69.1,66.0,90,30.01,10.0,South,4.6,-,N/A,,Clear,170,2014-04-05 06:53:00
3:53 AM,66.9,64.9,93,30.00,10.0,Calm,Calm,-,N/A,,Clear,0,2014-04-05 07:53:00
4:53 AM,66.9,64.9,93,30.00,10.0,Calm,Calm,-,N/A,,Clear,0,2014-04-05 08:53:00
5:53 AM,66.9,64.9,93,29.99,10.0,Calm,Calm,-,N/A,,Clear,0,2014-04-05 09:53:00
6:53 AM,66.9,64.9,93,30.00,9.0,SSE,4.6,-,N/A,,Clear,160,2014-04-05 10:53:00
7:53 AM,66.9,66.0,97,30.03,7.0,NNE,3.5,-,N/A,,Clear,20,2014-04-05 11:53:00
8:53 AM,71.1,68.0,90,30.05,9.0,ENE,3.5,-,N/A,,Clear,70,2014-04-05 12:53:00
9:53 AM,73.9,68.0,82,30.05,10.0,Calm,Calm,-,N/A,,Mostly Cloudy,0,2014-04-05 13:53:00
10:53 AM,79.0,64.9,62,30.06,10.0,Variable,3.5,-,N/A,,Scattered Clouds,0,2014-04-05 14:53:00
11:53 AM,81.0,62.1,52,30.06,10.0,South,5.8,-,N/A,,Partly Cloudy,180,2014-04-05 15:53:00
12:53 PM,82.9,61.0,47,30.05,10.0,North,-9999.0,-,N/A,,Scattered Clouds,0,2014-04-05 16:53:00
1:53 PM,84.9,55.9,37,30.03,10.0,SW,9.2,-,N/A,,Partly Cloudy,230,2014-04-05 17:53:00
2:53 PM,84.9,57.9,40,30.02,10.0,West,10.4,-,N/A,,Clear,270,2014-04-05 18:53:00
3:53 PM,84.9,59.0,41,30.01,10.0,West,11.5,-,N/A,,Clear,260,2014-04-05 19:53:00
4:53 PM,82.9,61.0,47,29.99,10.0,West,10.4,-,N/A,,Clear,260,2014-04-05 20:53:00
5:53 PM,82.0,63.0,52,29.99,10.0,West,12.7,-,N/A,,Clear,260,2014-04-05 21:53:00
6:53 PM,80.1,61.0,52,29.99,10.0,West,9.2,-,N/A,,Clear,270,2014-04-05 22:53:00
7:53 PM,78.1,62.1,58,30.00,10.0,West,6.9,-,N/A,,Clear,270,2014-04-05 23:53:00
8:53 PM,75.9,64.0,67,30.01,10.0,WNW,4.6,-,N/A,,Clear,290,2014-04-06 00:53:00
9:53 PM,73.9,64.9,73,30.04,10.0,NNW,4.6,-,N/A,,Clear,330,2014-04-06 01:53:00
10:53 PM,73.0,66.0,79,30.04,10.0,Calm,Calm,-,N/A,,Clear,0,2014-04-06 02:53:00
11:53 PM,72.0,64.9,78,30.05,10.0,Calm,Calm,-,N/A,,Mostly Cloudy,0,2014-04-06 03:53:00